Location: Bemmer
(51.5498°N, 5.6249°E)
Time: 13:55:19
(UTC+00:00)

BREEZE-M DEB (TANK) - Pass Details

Date: 03 March 2021
Orbit: 308 x 15404 km, 49.5° (Epoch: 10 April)

Event Time Altitude Azimuth Distance (km) Brightness Sun altitude
Rises 19:43:04 0° 272° (W) 2,143 6.6 -22.5°
Reaches altitude 10° 19:44:25 10° 268° (W) 1,471 5.4 -22.7°
Maximum altitude 19:47:09 63° 185° (S) 692 2.6 -23.1°
Enters shadow 19:47:19 63° 171° (S) 712 2.6 -23.1°
